Year,Month,Day,Hour,Minute,Value (Times are PST for temperature in C)
2020,04,15,00,00,10.10
2020,04,15,00,01,10.10
2020,04,15,00,02,10.10
2020,04,15,00,03,10.10
2020,04,15,00,04,10.10
2020,04,15,00,05,10.10
2020,04,15,00,06,10.10
2020,04,15,00,07,10.10
2020,04,15,00,08,10.00
2020,04,15,00,09,10.00
2020,04,15,00,10,10.00
2020,04,15,00,11,10.00
2020,04,15,00,12,9.90
2020,04,15,00,13,9.90
2020,04,15,00,14,9.90
2020,04,15,00,15,9.90
2020,04,15,00,16,9.90
2020,04,15,00,17,9.90
2020,04,15,00,18,9.90
2020,04,15,00,19,9.90
2020,04,15,00,20,9.80
2020,04,15,00,21,9.80
2020,04,15,00,22,9.80
2020,04,15,00,23,9.80
2020,04,15,00,24,9.80
2020,04,15,00,25,9.80
2020,04,15,00,26,9.80
2020,04,15,00,27,9.80
2020,04,15,00,28,9.80
2020,04,15,00,29,9.80
2020,04,15,00,30,9.80
2020,04,15,00,31,9.80
2020,04,15,00,32,9.80
2020,04,15,00,33,9.80
2020,04,15,00,34,9.80
2020,04,15,00,35,9.80
2020,04,15,00,36,9.80
2020,04,15,00,37,9.80
2020,04,15,00,38,9.70
2020,04,15,00,39,9.70
2020,04,15,00,40,9.70
2020,04,15,00,41,9.70
2020,04,15,00,42,9.70
2020,04,15,00,43,9.70
2020,04,15,00,44,9.60
2020,04,15,00,45,9.60
2020,04,15,00,46,9.60
2020,04,15,00,47,9.60
2020,04,15,00,48,9.60
2020,04,15,00,49,9.60
2020,04,15,00,50,9.60
2020,04,15,00,51,9.60
2020,04,15,00,52,9.60
2020,04,15,00,53,9.50
2020,04,15,00,54,9.50
2020,04,15,00,55,9.50
2020,04,15,00,56,9.50
2020,04,15,00,57,9.50
2020,04,15,00,58,9.40
2020,04,15,00,59,9.50
2020,04,15,01,00,9.40
2020,04,15,01,01,9.40
2020,04,15,01,02,9.40
2020,04,15,01,03,9.40
2020,04,15,01,04,9.40
2020,04,15,01,05,9.40
2020,04,15,01,06,9.40
2020,04,15,01,07,9.40
2020,04,15,01,08,9.40
2020,04,15,01,09,9.40
2020,04,15,01,10,9.40
2020,04,15,01,11,9.40
2020,04,15,01,12,9.40
2020,04,15,01,13,9.40
2020,04,15,01,14,9.40
2020,04,15,01,15,9.40
2020,04,15,01,16,9.40
2020,04,15,01,17,9.40
2020,04,15,01,18,9.30
2020,04,15,01,19,9.30
2020,04,15,01,20,9.20
2020,04,15,01,21,9.20
2020,04,15,01,22,9.20
2020,04,15,01,23,9.10
2020,04,15,01,24,9.10
2020,04,15,01,25,9.10
2020,04,15,01,26,9.10
2020,04,15,01,27,9.10
2020,04,15,01,28,9.10
2020,04,15,01,29,9.10
2020,04,15,01,30,9.10
2020,04,15,01,31,9.00
2020,04,15,01,32,9.00
2020,04,15,01,33,9.00
2020,04,15,01,34,9.00
2020,04,15,01,35,9.00
2020,04,15,01,36,9.00
2020,04,15,01,37,9.00
2020,04,15,01,38,9.00
2020,04,15,01,39,9.00
2020,04,15,01,40,8.90
2020,04,15,01,41,9.00
2020,04,15,01,42,9.00
2020,04,15,01,43,8.90
2020,04,15,01,44,8.90
2020,04,15,01,45,8.90
2020,04,15,01,46,8.90
2020,04,15,01,47,8.90
2020,04,15,01,48,8.90
2020,04,15,01,49,8.90
2020,04,15,01,50,8.90
2020,04,15,01,51,8.90
2020,04,15,01,52,8.90
2020,04,15,01,53,8.90
2020,04,15,01,54,8.90
2020,04,15,01,55,8.90
2020,04,15,01,56,8.80
2020,04,15,01,57,8.80
2020,04,15,01,58,8.80
2020,04,15,01,59,8.80
2020,04,15,02,00,8.80
2020,04,15,02,01,8.80
2020,04,15,02,02,8.80
2020,04,15,02,03,8.80
2020,04,15,02,04,8.80
2020,04,15,02,05,8.80
2020,04,15,02,06,8.70
2020,04,15,02,07,8.70
2020,04,15,02,08,8.70
2020,04,15,02,09,8.70
2020,04,15,02,10,8.70
2020,04,15,02,11,8.70
2020,04,15,02,12,8.70
2020,04,15,02,13,8.60
2020,04,15,02,14,8.60
2020,04,15,02,15,8.60
2020,04,15,02,16,8.60
2020,04,15,02,17,8.60
2020,04,15,02,18,8.60
2020,04,15,02,19,8.60
2020,04,15,02,20,8.60
2020,04,15,02,21,8.60
2020,04,15,02,22,8.60
2020,04,15,02,23,8.60
2020,04,15,02,24,8.60
2020,04,15,02,25,8.60
2020,04,15,02,26,8.60
2020,04,15,02,27,8.60
2020,04,15,02,28,8.60
2020,04,15,02,29,8.60
2020,04,15,02,30,8.50
2020,04,15,02,31,8.50
2020,04,15,02,32,8.50
2020,04,15,02,33,8.50
2020,04,15,02,34,8.50
2020,04,15,02,35,8.50
2020,04,15,02,36,8.50
2020,04,15,02,37,8.50
2020,04,15,02,38,8.50
2020,04,15,02,39,8.50
2020,04,15,02,40,8.50
2020,04,15,02,41,8.50
2020,04,15,02,42,8.50
2020,04,15,02,43,8.50
2020,04,15,02,44,8.50
2020,04,15,02,45,8.40
2020,04,15,02,46,8.40
2020,04,15,02,47,8.40
2020,04,15,02,48,8.40
2020,04,15,02,49,8.40
2020,04,15,02,50,8.40
2020,04,15,02,51,8.40
2020,04,15,02,52,8.40
2020,04,15,02,53,8.30
2020,04,15,02,54,8.30
2020,04,15,02,55,8.30
2020,04,15,02,56,8.30
2020,04,15,02,57,8.30
2020,04,15,02,58,8.30
2020,04,15,02,59,8.30
2020,04,15,03,00,8.30
2020,04,15,03,01,8.30
2020,04,15,03,02,8.30
2020,04,15,03,03,8.30
2020,04,15,03,04,8.20
2020,04,15,03,05,8.20
2020,04,15,03,06,8.20
2020,04,15,03,07,8.20
2020,04,15,03,08,8.20
2020,04,15,03,09,8.20
2020,04,15,03,10,8.20
2020,04,15,03,11,8.20
2020,04,15,03,12,8.10
2020,04,15,03,13,8.10
2020,04,15,03,14,8.10
2020,04,15,03,15,8.10
2020,04,15,03,16,8.00
2020,04,15,03,17,8.00
2020,04,15,03,18,8.00
2020,04,15,03,19,8.00
2020,04,15,03,20,7.90
2020,04,15,03,21,7.90
2020,04,15,03,22,7.90
2020,04,15,03,23,7.80
2020,04,15,03,24,7.80
2020,04,15,03,25,7.80
2020,04,15,03,26,7.80
2020,04,15,03,27,7.80
2020,04,15,03,28,7.80
2020,04,15,03,29,7.80
2020,04,15,03,30,7.70
2020,04,15,03,31,7.70
2020,04,15,03,32,7.70
2020,04,15,03,33,7.70
2020,04,15,03,34,7.70
2020,04,15,03,35,7.60
2020,04,15,03,36,7.60
2020,04,15,03,37,7.60
2020,04,15,03,38,7.60
2020,04,15,03,39,7.50
2020,04,15,03,40,7.50
2020,04,15,03,41,7.50
2020,04,15,03,42,7.40
2020,04,15,03,43,7.40
2020,04,15,03,44,7.40
2020,04,15,03,45,7.40
2020,04,15,03,46,7.40
2020,04,15,03,47,7.30
2020,04,15,03,48,7.30
2020,04,15,03,49,7.30
2020,04,15,03,50,7.30
2020,04,15,03,51,7.20
2020,04,15,03,52,7.20
2020,04,15,03,53,7.20
2020,04,15,03,54,7.20
2020,04,15,03,55,7.20
2020,04,15,03,56,7.10
2020,04,15,03,57,7.10
2020,04,15,03,58,7.10
2020,04,15,03,59,7.10
2020,04,15,04,00,7.10
2020,04,15,04,01,7.10
2020,04,15,04,02,7.00
2020,04,15,04,03,7.00
2020,04,15,04,04,7.00
2020,04,15,04,05,7.00
2020,04,15,04,06,7.00
2020,04,15,04,07,7.00
2020,04,15,04,08,6.90
2020,04,15,04,09,6.90
2020,04,15,04,10,6.90
2020,04,15,04,11,6.90
2020,04,15,04,12,6.90
2020,04,15,04,13,6.90
2020,04,15,04,14,6.80
2020,04,15,04,15,6.80
2020,04,15,04,16,6.80
2020,04,15,04,17,6.80
2020,04,15,04,18,6.80
2020,04,15,04,19,6.80
2020,04,15,04,20,6.80
2020,04,15,04,21,6.80
2020,04,15,04,22,6.80
2020,04,15,04,23,6.80
2020,04,15,04,24,6.80
2020,04,15,04,25,6.70
2020,04,15,04,26,6.70
2020,04,15,04,27,6.70
2020,04,15,04,28,6.70
2020,04,15,04,29,6.70
2020,04,15,04,30,6.60
2020,04,15,04,31,6.60
2020,04,15,04,32,6.60
2020,04,15,04,33,6.60
2020,04,15,04,34,6.60
2020,04,15,04,35,6.50
2020,04,15,04,36,6.50
2020,04,15,04,37,6.50
2020,04,15,04,38,6.50
2020,04,15,04,39,6.40
2020,04,15,04,40,6.40
2020,04,15,04,41,6.40
2020,04,15,04,42,6.40
2020,04,15,04,43,6.40
2020,04,15,04,44,6.40
2020,04,15,04,45,6.40
2020,04,15,04,46,6.40
2020,04,15,04,47,6.40
2020,04,15,04,48,6.30
2020,04,15,04,49,6.30
2020,04,15,04,50,6.30
2020,04,15,04,51,6.30
2020,04,15,04,52,6.30
2020,04,15,04,53,6.30
2020,04,15,04,54,6.30
2020,04,15,04,55,6.20
2020,04,15,04,56,6.20
2020,04,15,04,57,6.20
2020,04,15,04,58,6.20
2020,04,15,04,59,6.20
2020,04,15,05,00,6.10
2020,04,15,05,01,6.10
2020,04,15,05,02,6.10
2020,04,15,05,03,6.10
2020,04,15,05,04,6.00
2020,04,15,05,05,6.00
2020,04,15,05,06,6.00
2020,04,15,05,07,5.90
2020,04,15,05,08,5.90
2020,04,15,05,09,5.90
2020,04,15,05,10,5.90
2020,04,15,05,11,5.90
2020,04,15,05,12,5.80
2020,04,15,05,13,5.80
2020,04,15,05,14,5.80
2020,04,15,05,15,5.80
2020,04,15,05,16,5.80
2020,04,15,05,17,5.80
2020,04,15,05,18,5.80
2020,04,15,05,19,5.80
2020,04,15,05,20,5.90
2020,04,15,05,21,5.90
2020,04,15,05,22,5.90
2020,04,15,05,23,5.90
2020,04,15,05,24,5.90
2020,04,15,05,25,5.90
2020,04,15,05,26,5.90
2020,04,15,05,27,5.90
2020,04,15,05,28,6.00
2020,04,15,05,29,6.00
2020,04,15,05,30,6.00
2020,04,15,05,31,6.00
2020,04,15,05,32,5.90
2020,04,15,05,33,5.90
2020,04,15,05,34,5.90
2020,04,15,05,35,5.90
2020,04,15,05,36,5.90
2020,04,15,05,37,5.90
2020,04,15,05,38,5.90
2020,04,15,05,39,5.90
2020,04,15,05,40,5.90
2020,04,15,05,41,5.80
2020,04,15,05,42,5.80
2020,04,15,05,43,5.80
2020,04,15,05,44,5.80
2020,04,15,05,45,5.80
2020,04,15,05,46,5.80
2020,04,15,05,47,5.80
2020,04,15,05,48,5.80
2020,04,15,05,49,5.80
2020,04,15,05,50,5.80
2020,04,15,05,51,5.80
2020,04,15,05,52,5.80
2020,04,15,05,53,5.80
2020,04,15,05,54,5.80
2020,04,15,05,55,5.70
2020,04,15,05,56,5.70
2020,04,15,05,57,5.70
2020,04,15,05,58,5.70
2020,04,15,05,59,5.70
2020,04,15,06,00,5.70
2020,04,15,06,01,5.70
2020,04,15,06,02,5.70
2020,04,15,06,03,5.70
2020,04,15,06,04,5.70
2020,04,15,06,05,5.70
2020,04,15,06,06,5.70
2020,04,15,06,07,5.70
2020,04,15,06,08,5.70
2020,04,15,06,09,5.70
2020,04,15,06,10,5.70
2020,04,15,06,11,5.60
2020,04,15,06,12,5.60
2020,04,15,06,13,5.60
2020,04,15,06,14,5.60
2020,04,15,06,15,5.60
2020,04,15,06,16,5.50
2020,04,15,06,17,5.50
2020,04,15,06,18,5.50
2020,04,15,06,19,5.40
2020,04,15,06,20,5.40
2020,04,15,06,21,5.40
2020,04,15,06,22,5.40
2020,04,15,06,23,5.40
2020,04,15,06,24,5.40
2020,04,15,06,25,5.40
2020,04,15,06,26,5.40
2020,04,15,06,27,5.40
2020,04,15,06,28,5.40
2020,04,15,06,29,5.40
2020,04,15,06,30,5.40
2020,04,15,06,31,5.40
2020,04,15,06,32,5.40
2020,04,15,06,33,5.40
2020,04,15,06,34,5.40
2020,04,15,06,35,5.40
2020,04,15,06,36,5.40
2020,04,15,06,37,5.40
2020,04,15,06,38,5.40
2020,04,15,06,39,5.40
2020,04,15,06,40,5.40
2020,04,15,06,41,5.40
2020,04,15,06,42,5.40
2020,04,15,06,43,5.40
2020,04,15,06,44,5.40
2020,04,15,06,45,5.30
2020,04,15,06,46,5.30
2020,04,15,06,47,5.30
2020,04,15,06,48,5.30
2020,04,15,06,49,5.30
2020,04,15,06,50,5.30
2020,04,15,06,51,5.30
2020,04,15,06,52,5.30
2020,04,15,06,53,5.40
2020,04,15,06,54,5.40
2020,04,15,06,55,5.40
2020,04,15,06,56,5.40
2020,04,15,06,57,5.30
2020,04,15,06,58,5.30
2020,04,15,06,59,5.40
2020,04,15,07,00,5.40
2020,04,15,07,01,5.40
2020,04,15,07,02,5.40
2020,04,15,07,03,5.40
2020,04,15,07,04,5.40
2020,04,15,07,05,5.40
2020,04,15,07,06,5.40
2020,04,15,07,07,5.30
2020,04,15,07,08,5.30
2020,04,15,07,09,5.40
2020,04,15,07,10,5.40
2020,04,15,07,11,5.40
2020,04,15,07,12,5.40
2020,04,15,07,13,5.40
2020,04,15,07,14,5.40
2020,04,15,07,15,5.40
2020,04,15,07,16,5.40
2020,04,15,07,17,5.40
2020,04,15,07,18,5.50
2020,04,15,07,19,5.50
2020,04,15,07,20,5.50
2020,04,15,07,21,5.60
2020,04,15,07,22,5.60
2020,04,15,07,23,5.60
2020,04,15,07,24,5.70
2020,04,15,07,25,5.70
2020,04,15,07,26,5.80
2020,04,15,07,27,5.80
2020,04,15,07,28,5.90
2020,04,15,07,29,5.90
2020,04,15,07,30,6.00
2020,04,15,07,31,6.10
2020,04,15,07,32,6.20
2020,04,15,07,33,6.30
2020,04,15,07,34,6.40
2020,04,15,07,35,6.50
2020,04,15,07,36,6.60
2020,04,15,07,37,6.60
2020,04,15,07,38,6.70
2020,04,15,07,39,6.80
2020,04,15,07,40,6.80
2020,04,15,07,41,6.90
2020,04,15,07,42,7.00
2020,04,15,07,43,7.00
2020,04,15,07,44,7.10
2020,04,15,07,45,7.10
2020,04,15,07,46,7.20
2020,04,15,07,47,7.30
2020,04,15,07,48,7.40
2020,04,15,07,49,7.50
2020,04,15,07,50,7.60
2020,04,15,07,51,7.70
2020,04,15,07,52,7.80
2020,04,15,07,53,7.90
2020,04,15,07,54,7.90
2020,04,15,07,55,7.90
2020,04,15,07,56,8.00
2020,04,15,07,57,8.00
2020,04,15,07,58,8.10
2020,04,15,07,59,8.20
2020,04,15,08,00,8.20
2020,04,15,08,01,8.20
2020,04,15,08,02,8.20
2020,04,15,08,03,8.30
2020,04,15,08,04,8.30
2020,04,15,08,05,8.30
2020,04,15,08,06,8.30
2020,04,15,08,07,8.30
2020,04,15,08,08,8.30
2020,04,15,08,09,8.30
2020,04,15,08,10,8.30
2020,04,15,08,11,8.40
2020,04,15,08,12,8.40
2020,04,15,08,13,8.50
2020,04,15,08,14,8.60
2020,04,15,08,15,8.60
2020,04,15,08,16,8.70
2020,04,15,08,17,8.70
2020,04,15,08,18,8.80
2020,04,15,08,19,8.80
2020,04,15,08,20,8.90
2020,04,15,08,21,9.00
2020,04,15,08,22,9.00
2020,04,15,08,23,9.10
2020,04,15,08,24,9.20
2020,04,15,08,25,9.20
2020,04,15,08,26,9.20
2020,04,15,08,27,9.30
2020,04,15,08,28,9.30
2020,04,15,08,29,9.30
2020,04,15,08,30,9.30
2020,04,15,08,31,9.40
2020,04,15,08,32,9.40
2020,04,15,08,33,9.40
2020,04,15,08,34,9.50
2020,04,15,08,35,9.50
2020,04,15,08,36,9.60
2020,04,15,08,37,9.60
2020,04,15,08,38,9.60
2020,04,15,08,39,9.70
2020,04,15,08,40,9.70
2020,04,15,08,41,9.70
2020,04,15,08,42,9.70
2020,04,15,08,43,9.80
2020,04,15,08,44,9.80
2020,04,15,08,45,9.80
2020,04,15,08,46,9.80
2020,04,15,08,47,9.90
2020,04,15,08,48,9.90
2020,04,15,08,49,9.90
2020,04,15,08,50,10.00
2020,04,15,08,51,10.00
2020,04,15,08,52,10.10
2020,04,15,08,53,10.10
2020,04,15,08,54,10.10
2020,04,15,08,55,10.20
2020,04,15,08,56,10.20
2020,04,15,08,57,10.20
2020,04,15,08,58,10.30
2020,04,15,08,59,10.30
2020,04,15,09,00,10.30
2020,04,15,09,01,10.30
2020,04,15,09,02,10.30
2020,04,15,09,03,10.30
2020,04,15,09,04,10.40
2020,04,15,09,05,10.40
2020,04,15,09,06,10.40
2020,04,15,09,07,10.40
2020,04,15,09,08,10.50
2020,04,15,09,09,10.60
2020,04,15,09,10,10.60
2020,04,15,09,11,10.60
2020,04,15,09,12,10.60
2020,04,15,09,13,10.70
2020,04,15,09,14,10.70
2020,04,15,09,15,10.70
2020,04,15,09,16,10.70
2020,04,15,09,17,10.80
2020,04,15,09,18,10.80
2020,04,15,09,19,10.80
2020,04,15,09,20,10.90
2020,04,15,09,21,10.90
2020,04,15,09,22,10.90
2020,04,15,09,23,10.90
2020,04,15,09,24,11.00
2020,04,15,09,25,11.00
2020,04,15,09,26,11.10
2020,04,15,09,27,11.20
2020,04,15,09,28,11.20
2020,04,15,09,29,11.30
2020,04,15,09,30,11.30
2020,04,15,09,31,11.30
2020,04,15,09,32,11.30
2020,04,15,09,33,11.30
2020,04,15,09,34,11.40
2020,04,15,09,35,11.50
2020,04,15,09,36,11.50
2020,04,15,09,37,11.60
2020,04,15,09,38,11.60
2020,04,15,09,39,11.70
2020,04,15,09,40,11.70
2020,04,15,09,41,11.80
2020,04,15,09,42,11.80
2020,04,15,09,43,11.90
2020,04,15,09,44,11.90
2020,04,15,09,45,12.00
2020,04,15,09,46,12.00
2020,04,15,09,47,12.10
2020,04,15,09,48,12.10
2020,04,15,09,49,12.20
2020,04,15,09,50,12.20
2020,04,15,09,51,12.30
2020,04,15,09,52,12.40
2020,04,15,09,53,12.40
2020,04,15,09,54,12.50
2020,04,15,09,55,12.50
2020,04,15,09,56,12.60
2020,04,15,09,57,12.60
2020,04,15,09,58,12.60
2020,04,15,09,59,12.60
2020,04,15,10,00,12.70
2020,04,15,10,01,12.70
2020,04,15,10,02,12.70
2020,04,15,10,03,12.80
2020,04,15,10,04,12.80
2020,04,15,10,05,12.80
2020,04,15,10,06,12.80
2020,04,15,10,07,12.80
2020,04,15,10,08,12.70
2020,04,15,10,09,12.70
2020,04,15,10,10,12.50
2020,04,15,10,11,12.40
2020,04,15,10,12,12.20
2020,04,15,10,13,12.00
2020,04,15,10,14,11.80
2020,04,15,10,15,11.70
2020,04,15,10,16,11.60
2020,04,15,10,17,11.40
2020,04,15,10,18,11.40
2020,04,15,10,19,11.40
2020,04,15,10,20,11.40
2020,04,15,10,21,11.30
2020,04,15,10,22,11.30
2020,04,15,10,23,11.20
2020,04,15,10,24,11.20
2020,04,15,10,25,11.10
2020,04,15,10,26,11.00
2020,04,15,10,27,10.90
2020,04,15,10,28,10.90
2020,04,15,10,29,10.90
2020,04,15,10,30,10.90
2020,04,15,10,31,10.90
2020,04,15,10,32,11.00
2020,04,15,10,33,10.90
2020,04,15,10,34,10.80
2020,04,15,10,35,10.80
2020,04,15,10,36,10.70
2020,04,15,10,37,10.70
2020,04,15,10,38,10.70
2020,04,15,10,39,10.80
2020,04,15,10,40,10.90
2020,04,15,10,41,11.00
2020,04,15,10,42,11.10
2020,04,15,10,43,11.20
2020,04,15,10,44,11.30
2020,04,15,10,45,11.30
2020,04,15,10,46,11.40
2020,04,15,10,47,11.50
2020,04,15,10,48,11.60
2020,04,15,10,49,11.70
2020,04,15,10,50,11.70
2020,04,15,10,51,11.70
2020,04,15,10,52,11.70
2020,04,15,10,53,11.70
2020,04,15,10,54,11.70
2020,04,15,10,55,11.70
2020,04,15,10,56,11.80
2020,04,15,10,57,11.80
2020,04,15,10,58,11.80
2020,04,15,10,59,11.80
2020,04,15,11,00,11.80
2020,04,15,11,01,11.80
2020,04,15,11,02,11.80
2020,04,15,11,03,11.80
2020,04,15,11,04,11.90
2020,04,15,11,05,11.90
2020,04,15,11,06,11.80
2020,04,15,11,07,11.80
2020,04,15,11,08,11.80
2020,04,15,11,09,11.80
2020,04,15,11,10,11.80
2020,04,15,11,11,11.70
2020,04,15,11,12,11.70
2020,04,15,11,13,11.80
2020,04,15,11,14,11.90
2020,04,15,11,15,11.90
2020,04,15,11,16,11.90
2020,04,15,11,17,11.90
2020,04,15,11,18,11.90
2020,04,15,11,19,11.90
2020,04,15,11,20,12.00
2020,04,15,11,21,12.00
2020,04,15,11,22,12.00
2020,04,15,11,23,12.10
2020,04,15,11,24,12.10
2020,04,15,11,25,12.20
2020,04,15,11,26,12.20
2020,04,15,11,27,12.30
2020,04,15,11,28,12.30
2020,04,15,11,29,12.30
2020,04,15,11,30,12.40
2020,04,15,11,31,12.40
2020,04,15,11,32,12.50
2020,04,15,11,33,12.60
2020,04,15,11,34,12.60
2020,04,15,11,35,12.60
2020,04,15,11,36,12.50
2020,04,15,11,37,12.50
2020,04,15,11,38,12.40
2020,04,15,11,39,12.30
2020,04,15,11,40,12.30
2020,04,15,11,41,12.30
2020,04,15,11,42,12.30
2020,04,15,11,43,12.30
2020,04,15,11,44,12.30
2020,04,15,11,45,12.40
2020,04,15,11,46,12.40
2020,04,15,11,47,12.40
2020,04,15,11,48,12.40
2020,04,15,11,49,12.40
2020,04,15,11,50,12.40
2020,04,15,11,51,12.50
2020,04,15,11,52,12.50
2020,04,15,11,53,12.50
2020,04,15,11,54,12.50
2020,04,15,11,55,12.50
2020,04,15,11,56,12.50
2020,04,15,11,57,12.60
2020,04,15,11,58,12.60
2020,04,15,11,59,12.70
2020,04,15,12,00,12.80
2020,04,15,12,01,12.80
2020,04,15,12,02,12.90
2020,04,15,12,03,13.00
2020,04,15,12,04,13.10
2020,04,15,12,05,13.20
2020,04,15,12,06,13.30
2020,04,15,12,07,13.40
2020,04,15,12,08,13.40
2020,04,15,12,09,13.50
2020,04,15,12,10,13.60
2020,04,15,12,11,13.60
2020,04,15,12,12,13.70
2020,04,15,12,13,13.80
2020,04,15,12,14,13.80
2020,04,15,12,15,13.90
2020,04,15,12,16,13.90
2020,04,15,12,17,13.90
2020,04,15,12,18,14.00
2020,04,15,12,19,14.00
2020,04,15,12,20,14.00
2020,04,15,12,21,13.90
2020,04,15,12,22,13.70
2020,04,15,12,23,13.60
2020,04,15,12,24,13.50
2020,04,15,12,25,13.40
2020,04,15,12,26,13.40
2020,04,15,12,27,13.40
2020,04,15,12,28,13.40
2020,04,15,12,29,13.50
2020,04,15,12,30,13.60
2020,04,15,12,31,13.60
2020,04,15,12,32,13.60
2020,04,15,12,33,13.60
2020,04,15,12,34,13.60
2020,04,15,12,35,13.70
2020,04,15,12,36,13.70
2020,04,15,12,37,13.70
2020,04,15,12,38,13.80
2020,04,15,12,39,13.80
2020,04,15,12,40,13.80
2020,04,15,12,41,13.90
2020,04,15,12,42,13.90
2020,04,15,12,43,14.00
2020,04,15,12,44,14.10
2020,04,15,12,45,14.10
2020,04,15,12,46,14.10
2020,04,15,12,47,14.20
2020,04,15,12,48,14.20
2020,04,15,12,49,14.20
2020,04,15,12,50,14.30
2020,04,15,12,51,14.30
2020,04,15,12,52,14.30
2020,04,15,12,53,14.30
2020,04,15,12,54,14.40
2020,04,15,12,55,14.50
2020,04,15,12,56,14.60
2020,04,15,12,57,14.60
2020,04,15,12,58,14.70
2020,04,15,12,59,14.80
2020,04,15,13,00,14.80
2020,04,15,13,01,14.80
2020,04,15,13,02,14.80
2020,04,15,13,03,14.80
2020,04,15,13,04,14.70
2020,04,15,13,05,14.70
2020,04,15,13,06,14.60
2020,04,15,13,07,14.60
2020,04,15,13,08,14.60
2020,04,15,13,09,14.50
2020,04,15,13,10,14.40
2020,04,15,13,11,14.40
2020,04,15,13,12,14.20
2020,04,15,13,13,14.00
2020,04,15,13,14,13.90
2020,04,15,13,15,13.90
2020,04,15,13,16,13.80
2020,04,15,13,17,13.80
2020,04,15,13,18,13.90
2020,04,15,13,19,13.90
2020,04,15,13,20,14.00
2020,04,15,13,21,14.10
2020,04,15,13,22,14.10
2020,04,15,13,23,14.10
2020,04,15,13,24,14.20
2020,04,15,13,25,14.20
2020,04,15,13,26,14.20
2020,04,15,13,27,14.20
2020,04,15,13,28,14.20
2020,04,15,13,29,14.10
2020,04,15,13,30,14.10
2020,04,15,13,31,14.00
2020,04,15,13,32,14.00
2020,04,15,13,33,14.00
2020,04,15,13,34,14.10
2020,04,15,13,35,14.10
2020,04,15,13,36,14.10
2020,04,15,13,37,14.00
2020,04,15,13,38,14.10
2020,04,15,13,39,14.10
2020,04,15,13,40,14.10
2020,04,15,13,41,14.20
2020,04,15,13,42,14.20
2020,04,15,13,43,14.30
2020,04,15,13,44,14.30
2020,04,15,13,45,14.20
2020,04,15,13,46,14.10
2020,04,15,13,47,14.00
2020,04,15,13,48,13.90
2020,04,15,13,49,13.90
2020,04,15,13,50,13.80
2020,04,15,13,51,13.80
2020,04,15,13,52,13.80
2020,04,15,13,53,13.80
2020,04,15,13,54,13.90
2020,04,15,13,55,13.90
2020,04,15,13,56,13.90
2020,04,15,13,57,13.90
2020,04,15,13,58,14.00
2020,04,15,13,59,14.10
2020,04,15,14,00,14.20
2020,04,15,14,01,14.20
2020,04,15,14,02,14.20
2020,04,15,14,03,14.10
2020,04,15,14,04,14.10
2020,04,15,14,05,14.10
2020,04,15,14,06,14.10
2020,04,15,14,07,14.10
2020,04,15,14,08,14.20
2020,04,15,14,09,14.20
2020,04,15,14,10,14.30
2020,04,15,14,11,14.20
2020,04,15,14,12,14.20
2020,04,15,14,13,14.10
2020,04,15,14,14,14.10
2020,04,15,14,15,14.10
2020,04,15,14,16,14.00
2020,04,15,14,17,14.00
2020,04,15,14,18,14.00
2020,04,15,14,19,14.00
2020,04,15,14,20,14.00
2020,04,15,14,21,14.10
2020,04,15,14,22,14.10
2020,04,15,14,23,14.20
2020,04,15,14,24,14.30
2020,04,15,14,25,14.30
2020,04,15,14,26,14.30
2020,04,15,14,27,14.30
2020,04,15,14,28,14.40
2020,04,15,14,29,14.50
2020,04,15,14,30,14.60
2020,04,15,14,31,14.70
2020,04,15,14,32,14.80
2020,04,15,14,33,14.90
2020,04,15,14,34,15.10
2020,04,15,14,35,15.20
2020,04,15,14,36,15.20
2020,04,15,14,37,15.30
2020,04,15,14,38,15.30
2020,04,15,14,39,15.40
2020,04,15,14,40,15.50
2020,04,15,14,41,15.60
2020,04,15,14,42,15.70
2020,04,15,14,43,15.80
2020,04,15,14,44,15.80
2020,04,15,14,45,15.90
2020,04,15,14,46,15.80
2020,04,15,14,47,15.80
2020,04,15,14,48,15.80
2020,04,15,14,49,15.80
2020,04,15,14,50,15.80
2020,04,15,14,51,15.80
2020,04,15,14,52,15.80
2020,04,15,14,53,15.80
2020,04,15,14,54,15.80
2020,04,15,14,55,15.80
2020,04,15,14,56,15.80
2020,04,15,14,57,15.80
2020,04,15,14,58,15.90
2020,04,15,14,59,16.00
2020,04,15,15,00,16.00
2020,04,15,15,01,16.10
2020,04,15,15,02,16.00
2020,04,15,15,03,16.00
2020,04,15,15,04,16.00
2020,04,15,15,05,15.90
2020,04,15,15,06,16.00
2020,04,15,15,07,16.00
2020,04,15,15,08,16.00
2020,04,15,15,09,16.10
2020,04,15,15,10,16.00
2020,04,15,15,11,16.00
2020,04,15,15,12,16.00
2020,04,15,15,13,15.90
2020,04,15,15,14,16.00
2020,04,15,15,15,16.00
2020,04,15,15,16,16.00
2020,04,15,15,17,16.00
2020,04,15,15,18,16.00
2020,04,15,15,19,16.10
2020,04,15,15,20,16.10
2020,04,15,15,21,16.10
2020,04,15,15,22,16.20
2020,04,15,15,23,16.20
2020,04,15,15,24,16.30
2020,04,15,15,25,16.30
2020,04,15,15,26,16.30
2020,04,15,15,27,16.30
2020,04,15,15,28,16.30
2020,04,15,15,29,16.30
2020,04,15,15,30,16.40
2020,04,15,15,31,16.40
2020,04,15,15,32,16.40
2020,04,15,15,33,16.40
2020,04,15,15,34,16.40
2020,04,15,15,35,16.50
2020,04,15,15,36,16.50
2020,04,15,15,37,16.60
2020,04,15,15,38,16.70
2020,04,15,15,39,16.70
2020,04,15,15,40,16.70
2020,04,15,15,41,16.70
2020,04,15,15,42,16.70
2020,04,15,15,43,16.70
2020,04,15,15,44,16.70
2020,04,15,15,45,16.80
2020,04,15,15,46,16.80
2020,04,15,15,47,16.80
2020,04,15,15,48,16.80
2020,04,15,15,49,16.90
2020,04,15,15,50,17.00
2020,04,15,15,51,17.00
2020,04,15,15,52,17.10
2020,04,15,15,53,17.10
2020,04,15,15,54,17.10
2020,04,15,15,55,17.10
2020,04,15,15,56,17.00
2020,04,15,15,57,16.90
2020,04,15,15,58,16.80
2020,04,15,15,59,16.70
2020,04,15,16,00,16.70
2020,04,15,16,01,16.70
2020,04,15,16,02,16.70
2020,04,15,16,03,16.70
2020,04,15,16,04,16.80
2020,04,15,16,05,16.90
2020,04,15,16,06,17.00
2020,04,15,16,07,17.00
2020,04,15,16,08,17.10
2020,04,15,16,09,17.10
2020,04,15,16,10,17.10
2020,04,15,16,11,17.10
2020,04,15,16,12,17.10
2020,04,15,16,13,17.20
2020,04,15,16,14,17.20
2020,04,15,16,15,17.10
2020,04,15,16,16,17.10
2020,04,15,16,17,17.00
2020,04,15,16,18,17.00
2020,04,15,16,19,17.00
2020,04,15,16,20,17.00
2020,04,15,16,21,16.90
2020,04,15,16,22,16.90
2020,04,15,16,23,16.80
2020,04,15,16,24,16.90
2020,04,15,16,25,16.90
2020,04,15,16,26,17.00
2020,04,15,16,27,17.10
2020,04,15,16,28,17.20
2020,04,15,16,29,17.30
2020,04,15,16,30,17.40
2020,04,15,16,31,17.40
2020,04,15,16,32,17.50
2020,04,15,16,33,17.50
2020,04,15,16,34,17.60
2020,04,15,16,35,17.60
2020,04,15,16,36,17.60
2020,04,15,16,37,17.60
2020,04,15,16,38,17.70
2020,04,15,16,39,17.70
2020,04,15,16,40,17.90
2020,04,15,16,41,18.00
2020,04,15,16,42,18.10
2020,04,15,16,43,18.20
2020,04,15,16,44,18.30
2020,04,15,16,45,18.40
2020,04,15,16,46,18.50
2020,04,15,16,47,18.60
2020,04,15,16,48,18.60
2020,04,15,16,49,18.70
2020,04,15,16,50,18.80
2020,04,15,16,51,18.80
2020,04,15,16,52,18.80
2020,04,15,16,53,18.80
2020,04,15,16,54,18.80
2020,04,15,16,55,18.80
2020,04,15,16,56,18.80
2020,04,15,16,57,18.70
2020,04,15,16,58,18.60
2020,04,15,16,59,18.60
2020,04,15,17,00,18.70
2020,04,15,17,01,18.70
2020,04,15,17,02,18.70
2020,04,15,17,03,18.70
2020,04,15,17,04,18.60
2020,04,15,17,05,18.60
2020,04,15,17,06,18.50
2020,04,15,17,07,18.50
2020,04,15,17,08,18.40
2020,04,15,17,09,18.40
2020,04,15,17,10,18.40
2020,04,15,17,11,18.40
2020,04,15,17,12,18.50
2020,04,15,17,13,18.50
2020,04,15,17,14,18.60
2020,04,15,17,15,18.60
2020,04,15,17,16,18.60
2020,04,15,17,17,18.60
2020,04,15,17,18,18.70
2020,04,15,17,19,18.70
2020,04,15,17,20,18.70
2020,04,15,17,21,18.80
2020,04,15,17,22,18.80
2020,04,15,17,23,18.70
2020,04,15,17,24,18.70
2020,04,15,17,25,18.60
2020,04,15,17,26,18.60
2020,04,15,17,27,18.60
2020,04,15,17,28,18.60
2020,04,15,17,29,18.60
2020,04,15,17,30,18.50
2020,04,15,17,31,18.50
2020,04,15,17,32,18.50
2020,04,15,17,33,18.40
2020,04,15,17,34,18.40
2020,04,15,17,35,18.40
2020,04,15,17,36,18.40
2020,04,15,17,37,18.40
2020,04,15,17,38,18.50
2020,04,15,17,39,18.60
2020,04,15,17,40,18.70
2020,04,15,17,41,18.80